Simultaneous Nadir Overpasses (SNOs) Predictions

Prediction of SNOs between GOES-17 and METOP-C Satellite Orbit:

Table of predicted SNOs for the next 14.0 days since TLE Epoch: 3/20/2020
Index Date Time (GOES-17) GOES-17 Lat,Lon METOP-C Lat,Lon Distance(km) Time Diff (sec)
1 03/20/2020 18:54:44 0.00,-137.21 0.86,-141.03 434.61 80
2 03/21/2020 18:36:45 -0.00,-137.22 -0.29,-136.04 134.91 80
3 03/23/2020 06:55:46 0.00,-137.20 -0.74,-140.63 390.32 80
4 03/24/2020 06:32:26 0.00,-137.20 0.34,-135.63 178.86 80
5 03/25/2020 18:51:20 -0.00,-137.23 0.65,-140.20 338.96 80
6 03/26/2020 18:33:20 -0.00,-137.22 -0.43,-135.20 230.01 80
7 03/28/2020 06:52:20 0.00,-137.20 -0.60,-139.79 296.25 80
8 03/29/2020 06:29:02 0.00,-137.19 0.55,-134.81 272.09 80
9 03/30/2020 18:47:54 -0.00,-137.20 0.50,-139.37 247.33 80
10 03/31/2020 18:29:56 -0.00,-137.19 -0.65,-134.38 320.53 80
11 04/02/2020 06:48:56 0.00,-137.15 -0.39,-138.97 207.42 80
12 04/03/2020 06:25:37 0.00,-137.13 0.70,-133.97 359.81 80




NCC Satellite Simultaneous Nadir Overpasses (SNOs) Prediction Service
